Regional Weather Roundup
Issued by NWS

Home | Current Version | Previous Version | Graphics & Text | Print | Product List | Glossary On
Versions: 1 2 3 4 5 6 7 8 9 10 11 12 13 14 15 16 17 18 19 20 21 22 23 24 25 26 27 28 29 30 31 32 33 34 35 36 37 38 39 40 41 42 43 44 45 46 47 48 49 50
925
ASUS43 KLOT 101303
RWRIL

ILLINOIS REGIONAL WEATHER ROUNDUP
NATIONAL WEATHER SERVICE CHICAGO/ROMEOVILLE IL
700 AM CST WED FEB 10 2016

NOTE: "FAIR" INDICATES FEW OR NO CLOUDS BELOW 12,000 FEET WITH NO
SIGNIFICANT WEATHER AND/OR OBSTRUCTIONS TO VISIBILITY.

* THESE STATIONS ARE NOT UNDER NWS QUALITY CONTROL. THEY ALSO MAY NOT
  REPORT WEATHER SUCH AS PRECIPITATION OR FOG.

ILZ001-002-007-009-015-016-024-101400-
NORTHWEST ILLINOIS

CITY           SKY/WX    TMP DP  RH WIND       PRES   REMARKS
MOLINE         CLOUDY     8  -2  63 W7        30.12R WCI  -3
STERLING*      CLEAR      7  -2  66 W10       30.05R WCI  -8
$$

ILZ003-004-008-010-011-017-018-101400-
NORTH CENTRAL ILLINOIS

CITY           SKY/WX    TMP DP  RH WIND       PRES   REMARKS
ROCKFORD       PTCLDY     6  -2  69 W10       30.05R WCI  -9
FREEPORT*      CLEAR      4  -3  72 NW12      30.07R WCI -12
ROCHELLE*      CLEAR      6  -1  74 NW9       30.04R WCI  -8
DE KALB*       CLOUDY     7   1  77 W14       30.01R WCI -10
$$

ILZ005-006-012>014-019>023-101400-
NORTHEAST ILLINOIS

CITY           SKY/WX    TMP DP  RH WIND       PRES   REMARKS
CHICAGO-OHARE  PTCLDY     9   0  67 NW9       29.98F WCI  -4
CHICAGO-MIDWAY PTCLDY    11  -1  58 NW8       29.99F WCI  -1
AURORA         CLOUDY    10   3  73 W13       30.02R WCI  -5
LANSING*       CLEAR     10   1  65 NW6G16    29.99F WCI   1
WAUKEGAN       PTCLDY     7   0  73 NW6       29.97S WCI  -3
DUPAGE AIRPORT PTCLDY     5  -2  72 W7        29.99S WCI  -7
WHEELING       CLEAR      9   0  67 NW8       29.99F WCI  -3
MORRIS*        CLEAR      7   1  78 W9        30.01R WCI  -7
NORTHERLY ISL    N/A     13   4  67 W10         N/A  WCI   0
$$

LMZ740>746-101400-
SOUTHERN LAKE MICHIGAN

STATION/POSITION SKY/WX   TEMP    WIND        PRES    VSBY  WAVE
                          AIR SEA DIR/SP/G                  HT/PER
                          (F)     (DEG/KT/KT) (MB)    (MI)  (FT/S)
HARRISON CRIB              13     320/ 19/ 23   N/A
BURNHAM HARBOR             12     320/ 13/ 18   N/A
CALUMET HARBOR             11     290/  8/ 12 1015.2R
BURNS HARBOR               17     320/ 17/ 25 1014.9R
MICHIGAN CITY              18     270/ 23/ 25   N/A
$$

ILZ025>027-034>036-040-047-049-050-058-095>099-101400-
WEST-CENTRAL ILLINOIS

CITY           SKY/WX    TMP DP  RH WIND       PRES   REMARKS
QUINCY         CLOUDY    11   5  77 NW6       30.15R WCI   1
MACOMB*        PTCLDY     8   4  85 W9        30.15R WCI  -6
$$

ILZ028>032-037-038-041>044-048-051>054-059>061-101400-
CENTRAL ILLINOIS

CITY           SKY/WX    TMP DP  RH WIND       PRES   REMARKS
BLOOMINGTON    CLEAR      7   2  80 W14       30.07R WCI -10
DECATUR        CLEAR     10   2  69 W10       30.09S WCI  -4
PEORIA         CLEAR      8   0  69 W7        30.11R WCI  -3
LACON*         CLEAR      8   0  69 NW9G17    30.08S WCI  -5
LINCOLN*       PTCLDY    10   4  76 W8        30.11R WCI  -2
SPRINGFIELD    PTCLDY     8   2  76 W7        30.13R WCI  -3
TAYLORVILLE    NOT AVBL
$$

ILZ033-039-045-046-055>057-062-063-101400-
EAST-CENTRAL ILLINOIS

CITY           SKY/WX    TMP DP  RH WIND       PRES   REMARKS
CHAMPAIGN      CLEAR      5   1  83 W8        30.06R WCI  -8
MATTOON        CLEAR      8   2  76 W14       30.07S WCI  -8
$$

ILZ079-100>102-101400-
SOUTHWEST ILLINOIS

CITY           SKY/WX    TMP DP  RH WIND       PRES   REMARKS
BELLEVILLE     PTCLDY    12   6  77 W2        30.15F
CAHOKIA*       CLOUDY    16   5  62 NW9       30.17F WCI   4
SPARTA*        CLEAR     14   6  70 NW5       30.18S WCI   7
$$

ILZ064>066-069>071-074>076-080>082-084>086-088>090-092>094-101400-
SOUTH-CENTRAL ILLINOIS

CITY           SKY/WX    TMP DP  RH WIND       PRES   REMARKS
CARBONDALE     CLEAR     12   5  73 W3        30.19R
MARION         PTCLDY    14   7  73 W6        30.19S WCI   5
MT. VERNON     PTCLDY    12   1  62 W3        30.15S
CENTRALIA*     CLEAR     15   7  71 NW9       30.14S WCI   3
SALEM*         CLEAR     14   5  67 W8        30.14S WCI   3
$$

ILZ067-068-072-073-078-083-087-091-101400-
SOUTHEAST ILLINOIS

CITY           SKY/WX    TMP DP  RH WIND       PRES   REMARKS
LAWRENCEVILLE  CLEAR     12   5  73 W13       30.13R WCI  -3
HARRISBURG*    PTCLDY    14   7  74 NW5       30.18S WCI   6
CARMI*         CLEAR     14   7  73 W10       30.16R WCI   1
$$

ABBREVIATIONS USED IN REMARKS
   TC - TEMPERATURE IN CELSIUS
  WCI - WIND CHILL INDEX
   HX - HEAT INDEX
  VSB - VISIBILITY
$$





USA.gov is the U.S. government's official web portal to all federal, state and local government web resources and services.